CYGFM08

Last updated on Wed Sep 17 2025 00:02:22 GMT+0000 (Coordinated Universal Time)

1 41888U 16078E 25259.28250838 .00018612 00000+0 38728-3 0 9998 2 41888 34.9453 243.3403 0008966 107.5428 252.6273 15.44656648486389
UTC large
Height (km)
Speed (km/s)
/
Latitude / Longitude
Inclination (degrees)
Orbital Period (minutes)
Azimuth
Elevation
Range (km)
Doppler Factor

Next 0 passes for location: London (51.5072 / 0.1276)

Sorry there are no passes over London.